Location: Albuquerque Trailhead
(34.7934°N, 106.3736°W)
Time: 18:51:40
(UTC+00:00)

NOAA 19 - Pass Details

Date: 06 April 2023
Orbit: 840 x 859 km, 99.1° (Epoch: 31 May)

Event Time Altitude Azimuth Distance (km) Brightness Sun altitude
Exits shadow 02:06:14 - 128° (SE) 2,721 7.3 -8.2°
Reaches altitude 10° 02:07:01 10° 124° (ESE) 2,462 7.0 -8.3°
Maximum altitude 02:11:32 27° 68° (ENE) 1,557 6.2 -9.2°
Drops below altitude 10° 02:16:03 10° 11° (NNE) 2,465 7.7 -10.1°
Sets 02:18:43 0° 0° (N) 3,402 8.6 -10.6°
